Location: Tamazert
(32.6352°N, 5.2072°W)
Time: 04:52:28
(UTC+00:00)

Vanguard 1 Rocket - Pass Details

Date: 07 October 2022
Orbit: 650 x 4225 km, 34.3° (Epoch: 05 December)

Event Time Altitude Azimuth Distance (km) Brightness Sun altitude
Rises 21:03:04 0° 269° (W) 8,187 13.0 -39.2°
Reaches altitude 10° 21:09:17 10° 270° (W) 6,824 12.4 -40.4°
Enters shadow 21:29:34 83° 342° (NNW) 2,368 9.2 -44.3°
Maximum altitude 21:29:48 84° 0° (N) 2,348 - -44.3°
Drops below altitude 10° 21:39:52 10° 89° (E) 3,658 - -46.2°
Sets 21:42:10 0° 90° (E) 4,336 - -46.6°
